Weather History for Jackson, MI

Change the Weather History Date:

Saturday, June 15, 2013

  Actual Average Record
Temperature  
Mean Temperature 65 °F 68 °F  
Max Temperature 78 °F 79 °F 92 °F (1967)
Min Temperature 51 °F 56 °F 42 °F (1999)
Degree Days  
Heating Degree Days 0 2  
Month to date heating degree days 47 41  
Since 1 June heating degree days 47 41  
Since 1 July heating degree days 6551 6643  
Cooling Degree Days 0 4  
Month to date cooling degree days 25 45  
Year to date cooling degree days 92 82  
Since 1 June cooling degree days 25 45  
Growing Degree Days 14 (Base 50)    
Moisture  
Dew Point 57 °F    
Average Humidity 74    
Maximum Humidity 93    
Minimum Humidity 54    
Precipitation  
Precipitation 0.02 in 0.11 in 1.20 in (1949)
Month to date precipitation 2.44 1.64  
Year to date precipitation 15.06 12.24  
Sea Level Pressure  
Sea Level Pressure 30.02 in    
Wind  
Wind Speed 5 mph (SW)    
Max Wind Speed 15 mph    
Max Gust Speed 21 mph    
Visibility 10 miles    
Events Rain    
T = Trace of Precipitation, MM = Missing Value Source: NWS Daily Summary

Daily Weather History Graph

Daily Weather History Graph

Search for Another Location

Airport:

Trip Planner

Search our weather history database for the weather conditions in past years. The results will help you decide how hot, cold, wet, or windy it might be!

Date:

Astronomy

Jun. 15, 2013 Rise Set
Actual Time 6:00 AM EDT 9:16 PM EDT
Civil Twilight 5:26 AM EDT 9:50 PM EDT
Nautical Twilight 4:41 AM EDT 10:35 PM EDT
Astronomical Twilight 3:47 AM EDT 11:30 PM EDT
Moon 12:41 PM EDT (6/15) 12:45 AM EDT (6/15)
Length of Visible Light 16h 24m
Length of Day
15h 15m
Waxing Crescent, 39% of the Moon is Illuminated
Jun 15
Waxing Crescent
Jun 16
First Quarter
Jun 23
Full
Jun 30
Last Quarter
Jul 8
New

Hourly Weather History & Observations

Time (EDT) Temp. Dew Point Humidity Pressure Visibility Wind Dir Wind Speed Gust Speed Precip Events Conditions
12:56 AM 55.9 °F 51.1 °F 84% 30.04 in 10.0 mi Calm Calm - N/A   Clear
1:56 AM 54.0 °F 51.1 °F 90% 30.06 in 10.0 mi WNW 3.5 mph - N/A   Clear
2:56 AM 54.0 °F 51.1 °F 90% 30.06 in 10.0 mi Calm Calm - N/A   Clear
3:56 AM 53.1 °F 51.1 °F 93% 30.07 in 10.0 mi Calm Calm - N/A   Clear
4:56 AM 54.0 °F 51.1 °F 90% 30.05 in 10.0 mi Calm Calm - N/A   Clear
5:56 AM 53.1 °F 51.1 °F 93% 30.06 in 10.0 mi Calm Calm - N/A   Clear
6:56 AM 54.0 °F 52.0 °F 93% 30.08 in 10.0 mi Calm Calm - N/A   Clear
7:56 AM 61.0 °F 55.9 °F 83% 30.09 in 10.0 mi Calm Calm - N/A   Partly Cloudy
8:56 AM 66.9 °F 57.0 °F 70% 30.07 in 10.0 mi SW 6.9 mph - N/A   Clear
9:56 AM 72.0 °F 59.0 °F 64% 30.06 in 10.0 mi Variable 5.8 mph - N/A   Clear
10:56 AM 72.0 °F 57.9 °F 61% 30.05 in 10.0 mi SW 8.1 mph - N/A   Clear
11:56 AM 73.9 °F 57.9 °F 57% 30.03 in 10.0 mi SW 5.8 mph - N/A   Mostly Cloudy
12:56 PM 75.0 °F 59.0 °F 57% 30.02 in 10.0 mi West 4.6 mph - N/A   Partly Cloudy
1:56 PM 75.0 °F 57.9 °F 55% 30.01 in 10.0 mi South 4.6 mph - N/A   Partly Cloudy
2:56 PM 75.9 °F 59.0 °F 56% 30.02 in 10.0 mi SW 9.2 mph - N/A   Partly Cloudy
3:56 PM 72.0 °F 60.1 °F 66% 30.03 in 10.0 mi SW 8.1 mph - 0.00 in   Overcast
4:56 PM 69.1 °F 62.1 °F 78% 30.03 in 8.0 mi West 6.9 mph - 0.02 in Rain Light Rain
5:56 PM 68.0 °F 62.1 °F 81% 30.02 in 10.0 mi WSW 9.2 mph - 0.00 in   Mostly Cloudy
6:56 PM 66.9 °F 60.1 °F 79% 29.99 in 10.0 mi WSW 11.5 mph - N/A   Clear
7:56 PM 68.0 °F 60.1 °F 76% 29.97 in 10.0 mi SW 4.6 mph - N/A   Clear
8:56 PM 66.0 °F 59.0 °F 78% 29.95 in 10.0 mi SSW 3.5 mph - N/A   Clear
9:56 PM 63.0 °F 59.0 °F 87% 29.95 in 10.0 mi SSE 4.6 mph - N/A   Clear
10:56 PM 64.0 °F 60.1 °F 87% 29.95 in 10.0 mi South 4.6 mph - N/A   Clear
11:56 PM 64.0 °F 60.1 °F 87% 29.93 in 10.0 mi South 5.8 mph - N/A   Scattered Clouds